TimeCDT,TemperatureF,Dew PointF,Humidity,Sea Level PressureIn,VisibilityMPH,Wind Direction,Wind SpeedMPH,Gust SpeedMPH,PrecipitationIn,Events,Conditions,WindDirDegrees,DateUTC
12:15 AM,52.0,45.5,79,29.92,10.0,SSE,6.9,-,N/A,,Clear,150,2013-09-22 05:15:00
12:35 AM,52.9,45.7,77,29.93,10.0,SSE,4.6,-,N/A,,Clear,160,2013-09-22 05:35:00
12:55 AM,52.3,45.5,78,29.93,10.0,SSE,5.8,-,N/A,,Clear,160,2013-09-22 05:55:00
1:15 AM,52.0,45.5,79,29.92,10.0,SSE,4.6,-,N/A,,Clear,150,2013-09-22 06:15:00
1:35 AM,50.9,45.5,82,29.93,10.0,SSE,4.6,-,N/A,,Clear,150,2013-09-22 06:35:00
1:55 AM,50.2,45.5,84,29.93,10.0,SSE,5.8,-,N/A,,Clear,160,2013-09-22 06:55:00
2:15 AM,50.7,45.5,82,29.93,10.0,SSE,4.6,-,N/A,,Clear,160,2013-09-22 07:15:00
2:35 AM,50.0,45.3,84,29.93,10.0,SE,5.8,-,N/A,,Clear,140,2013-09-22 07:35:00
2:55 AM,50.0,45.1,83,29.93,10.0,SSE,5.8,-,N/A,,Clear,150,2013-09-22 07:55:00
3:15 AM,50.0,45.3,84,29.93,10.0,SSE,5.8,-,N/A,,Clear,150,2013-09-22 08:15:00
3:35 AM,49.6,45.1,84,29.93,10.0,SE,5.8,-,N/A,,Clear,140,2013-09-22 08:35:00
3:55 AM,49.6,45.1,84,29.93,10.0,SSE,5.8,-,N/A,,Clear,150,2013-09-22 08:55:00
4:15 AM,49.1,45.1,86,29.93,10.0,SSE,5.8,-,N/A,,Clear,150,2013-09-22 09:15:00
4:35 AM,49.3,45.1,86,29.93,10.0,SSE,5.8,-,N/A,,Clear,150,2013-09-22 09:35:00
4:55 AM,48.9,45.1,87,29.93,10.0,SSE,5.8,-,N/A,,Clear,150,2013-09-22 09:55:00
5:15 AM,49.3,45.1,86,29.94,10.0,SSE,6.9,-,N/A,,Clear,150,2013-09-22 10:15:00
5:35 AM,50.0,45.5,85,29.94,10.0,SSE,5.8,-,N/A,,Clear,150,2013-09-22 10:35:00
5:55 AM,49.1,45.1,86,29.94,10.0,SSE,5.8,-,N/A,,Clear,150,2013-09-22 10:55:00
6:15 AM,48.6,45.0,87,29.94,10.0,SE,5.8,-,N/A,,Clear,140,2013-09-22 11:15:00
6:35 AM,48.6,44.8,87,29.94,10.0,SE,5.8,-,N/A,,Clear,140,2013-09-22 11:35:00
6:55 AM,48.2,44.8,88,29.94,10.0,SE,4.6,-,N/A,,Clear,140,2013-09-22 11:55:00
7:15 AM,47.8,44.4,88,29.95,10.0,SE,4.6,-,N/A,,Clear,130,2013-09-22 12:15:00
7:35 AM,48.2,44.8,88,29.96,10.0,SE,3.5,-,N/A,,Clear,130,2013-09-22 12:35:00
7:55 AM,49.6,46.4,89,29.96,10.0,SE,3.5,-,N/A,,Clear,140,2013-09-22 12:55:00
8:15 AM,52.2,47.7,85,29.96,10.0,SE,3.5,-,N/A,,Clear,130,2013-09-22 13:15:00
8:35 AM,55.2,48.7,79,29.96,10.0,SSE,5.8,-,N/A,,Clear,150,2013-09-22 13:35:00
8:55 AM,57.4,49.3,74,29.96,10.0,SSE,9.2,-,N/A,,Clear,150,2013-09-22 13:55:00
9:15 AM,60.4,49.1,66,29.97,10.0,SSE,8.1,-,N/A,,Clear,160,2013-09-22 14:15:00
9:35 AM,62.4,48.9,61,29.97,10.0,South,11.5,-,N/A,,Clear,170,2013-09-22 14:35:00
9:55 AM,64.2,49.3,58,29.97,10.0,South,8.1,-,N/A,,Clear,170,2013-09-22 14:55:00
10:15 AM,66.6,48.9,53,29.97,10.0,South,9.2,-,N/A,,Clear,170,2013-09-22 15:15:00
10:35 AM,68.9,49.3,50,29.96,10.0,South,9.2,-,N/A,,Clear,170,2013-09-22 15:35:00
10:55 AM,70.3,49.1,47,29.96,10.0,South,11.5,16.1,N/A,,Clear,170,2013-09-22 15:55:00
11:15 AM,70.9,48.7,45,29.96,10.0,South,15.0,19.6,N/A,,Clear,180,2013-09-22 16:15:00
11:35 AM,72.5,48.9,43,29.96,10.0,South,10.4,17.3,N/A,,Clear,180,2013-09-22 16:35:00
11:55 AM,73.6,48.6,41,29.94,10.0,South,12.7,18.4,N/A,,Clear,180,2013-09-22 16:55:00
12:15 PM,74.3,48.7,40,29.94,10.0,South,10.4,-,N/A,,Clear,180,2013-09-22 17:15:00
12:35 PM,75.4,48.6,39,29.94,10.0,South,12.7,18.4,N/A,,Clear,170,2013-09-22 17:35:00
12:55 PM,76.3,49.1,38,29.93,10.0,South,10.4,-,N/A,,Clear,170,2013-09-22 17:55:00
1:15 PM,77.4,49.8,38,29.92,10.0,SSE,11.5,-,N/A,,Clear,150,2013-09-22 18:15:00
1:35 PM,78.3,49.6,37,29.92,10.0,South,10.4,17.3,N/A,,Clear,190,2013-09-22 18:35:00
1:55 PM,78.6,49.5,36,29.91,10.0,South,12.7,17.3,N/A,,Clear,170,2013-09-22 18:55:00
2:15 PM,78.8,48.7,35,29.90,10.0,SSE,12.7,-,N/A,,Clear,160,2013-09-22 19:15:00
2:35 PM,79.0,48.2,34,29.90,10.0,South,10.4,18.4,N/A,,Clear,170,2013-09-22 19:35:00
2:55 PM,79.3,47.8,33,29.89,10.0,South,11.5,19.6,N/A,,Clear,170,2013-09-22 19:55:00
3:15 PM,79.5,47.8,33,29.88,10.0,South,12.7,17.3,N/A,,Clear,190,2013-09-22 20:15:00
3:35 PM,79.7,47.7,32,29.88,10.0,South,10.4,16.1,N/A,,Clear,170,2013-09-22 20:35:00
3:55 PM,79.9,47.7,32,29.87,10.0,South,9.2,17.3,N/A,,Clear,190,2013-09-22 20:55:00
4:15 PM,79.7,46.8,31,29.87,10.0,SSE,12.7,19.6,N/A,,Clear,160,2013-09-22 21:15:00
4:35 PM,79.0,47.5,33,29.86,10.0,SSE,12.7,19.6,N/A,,Clear,160,2013-09-22 21:35:00
4:55 PM,79.0,48.2,34,29.86,10.0,South,9.2,16.1,N/A,,Clear,170,2013-09-22 21:55:00
5:15 PM,77.9,49.3,37,29.86,10.0,SE,12.7,20.7,N/A,,Clear,140,2013-09-22 22:15:00
5:35 PM,77.2,48.9,37,29.86,10.0,SSE,11.5,18.4,N/A,,Clear,150,2013-09-22 22:35:00
5:55 PM,76.6,48.7,37,29.86,10.0,SSE,11.5,18.4,N/A,,Clear,150,2013-09-22 22:55:00
6:15 PM,75.2,49.5,40,29.87,10.0,SSE,10.4,-,N/A,,Clear,150,2013-09-22 23:15:00
6:35 PM,74.1,49.3,41,29.87,10.0,SSE,9.2,16.1,N/A,,Clear,150,2013-09-22 23:35:00
6:55 PM,71.8,50.7,47,29.87,10.0,SSE,8.1,-,N/A,,Clear,150,2013-09-22 23:55:00
7:15 PM,69.6,51.1,52,29.87,10.0,SSE,5.8,-,N/A,,Clear,150,2013-09-23 00:15:00
7:35 PM,65.7,52.2,62,29.87,10.0,SE,6.9,-,N/A,,Clear,140,2013-09-23 00:35:00
7:55 PM,63.3,52.7,68,29.88,10.0,SE,5.8,-,N/A,,Clear,140,2013-09-23 00:55:00
8:15 PM,62.4,52.3,70,29.88,10.0,SE,6.9,-,N/A,,Clear,130,2013-09-23 01:15:00
8:35 PM,61.7,52.2,71,29.89,10.0,SE,6.9,-,N/A,,Clear,140,2013-09-23 01:35:00
8:55 PM,60.8,52.2,73,29.89,10.0,SE,6.9,-,N/A,,Clear,140,2013-09-23 01:55:00
9:35 PM,61.2,52.0,72,29.89,10.0,SE,6.9,-,N/A,,Clear,140,2013-09-23 02:35:00
9:55 PM,61.5,52.0,71,29.90,10.0,SSE,8.1,-,N/A,,Clear,150,2013-09-23 02:55:00
10:35 PM,60.1,51.1,72,29.90,10.0,SE,6.9,-,N/A,,Clear,140,2013-09-23 03:35:00
10:55 PM,60.1,50.4,70,29.90,10.0,SSE,6.9,-,N/A,,Clear,150,2013-09-23 03:55:00
11:15 PM,59.4,50.2,72,29.90,10.0,SSE,8.1,-,N/A,,Clear,150,2013-09-23 04:15:00
11:35 PM,59.4,49.8,71,29.90,10.0,SSE,8.1,-,N/A,,Clear,150,2013-09-23 04:35:00
11:55 PM,59.2,49.5,70,29.90,10.0,SSE,6.9,-,N/A,,Clear,150,2013-09-23 04:55:00